Regional Weather Roundup
Issued by NWS Northern Indiana

Home | Current Version | Previous Version | Graphics & Text | Print | Product List | Glossary On
Versions: 1 2 3 4 5 6 7 8 9 10 11 12 13 14 15 16 17 18 19 20 21 22 23 24 25 26 27 28 29 30 31 32 33 34 35 36 37 38 39 40 41 42 43 44 45 46 47 48 49 50
000
ASUS43 KIWX 212310
RWRIWX

KIWX WEATHER ROUNDUP
NATIONAL WEATHER SERVICE NORTHERN INDIANA
600 PM EST SAT JAN 21 2017

NOTE: "FAIR" INDICATES FEW OR NO CLOUDS BELOW 12,000 FEET WITH NO
SIGNIFICANT WEATHER AND/OR OBSTRUCTIONS TO VISIBILITY.

* THESE STATIONS ARE NOT UNDER NWS QUALITY CONTROL. THEY ALSO MAY NOT
  REPORT WEATHER SUCH AS PRECIPITATION OR FOG.

INZ001>027-220000-
NORTHERN INDIANA

CITY           SKY/WX    TMP DP  RH WIND       PRES   REMARKS
GARY*          PTCLDY    59  46  63 SW9       29.52R
VALPARAISO     MOCLDY    57  51  80 SW8       29.53R
LAPORTE*       MOCLDY    56  49  78 S7        29.54R
KNOX*          CLEAR     55  32  41 SW6       29.53R
SOUTH BEND     CLEAR     55  48  77 SW8       29.54R
ELKHART*       CLEAR     57  50  77 S6        29.53R
GOSHEN         CLEAR     56  48  74 S8        29.54R
ROCHESTER*     CLEAR     59  52  77 S6        29.54R
WARSAW*        CLEAR     55  46  71 S3        29.54S
FORT WAYNE     PTCLDY    55  50  83 S9        29.57S
PERU/GRISSOM   CLEAR     58  54  88 S8        29.53F
MARION*        CLEAR     55  52  88 S10       29.57S

$$
INZ028>050-220000-
CENTRAL INDIANA

CITY           SKY/WX    TMP DP  RH WIND       PRES   REMARKS
LAFAYETTE      CLEAR     58  49  72 SW6       29.54R
KOKOMO*        CLEAR     56  52  86 S10       29.56S
MUNCIE*        CLEAR     60  52  74 S9        29.58R
INDIANAPOLIS   PTCLDY    59  49  69 SW10      29.57R

$$
MIZ043>046-050>051-056>058-064>065-071>073-077>080-220000-
SOUTHWEST LOWER MICHIGAN

CITY           SKY/WX    TMP DP  RH WIND       PRES   REMARKS
BATTLE CREEK   CLEAR     54  49  83 S8        29.54R
BENTON HARBOR  MOCLDY    58  48  69 SW6       29.52R
COLDWATER*     CLEAR     55  51  88 SE7       29.55S
HILLSDALE*     CLEAR     52  50  93 SE7       29.57S
HOLLAND        MOCLDY    53  47  79 SW6       29.52R
GRAND RAPIDS   PTCLDY    52  46  80 S8        29.52R
KALAMAZOO      CLEAR     57  48  72 S7        29.54R
STURGIS*       CLEAR     55  49  82 S7        29.54R
THREE RIVERS*  FAIR      55  49  81 S6        29.54R

$$
OHZ001>008-015>018-024>025-220000-
NORTHWEST OHIO

CITY           SKY/WX    TMP DP  RH WIND       PRES   REMARKS
DEFIANCE       CLEAR     56  50  80 S7        29.59R
FINDLAY        PTCLDY    56  50  80 SE10      29.60S
TOLEDO EXPRESS CLEAR     56  52  86 SE5       29.59S
TOLEDO METCALF PTCLDY    54  52  93 SE8       29.61S
LIMA           PTCLDY    54  50  86 S9        29.60S

$$
AND FOR LAKE MICHIGAN COASTAL AND OPEN LAKE BUOY OBSERVATIONS

STATION/POSITION TEMP    WIND        PRES    VSBY  WAVE
                 AIR SEA DIR/SP/G                  HT/PER
                 (F)     (DEG/KT/KT) (MB)    (MI)  (FT/S)
CALUMET HARBOR           200/  9/ 13  999.0R
MICHIGAN CITY     59     190/ 10/ 11   N/A
BURNS HARBOR      57     230/  9/ 11 1000.3R

$$
&&




USA.gov is the U.S. government's official web portal to all federal, state and local government web resources and services.